Theta_e
350 353 350 352 360 359 346 346 345 345 345 343 344 343 346 346 347 351 344 343 345 345 343 339 337 339 338 337 334 335 336 336 337 338 338 338 337 336 335 337 338 339 340 342 343 342 339 331 335
350 349 350 348 362 352 349 344 345 345 344 344 343 345 345 347 344 344 344 344 346 347 346 345 336 337 339 334 337 337 336 337 337 337 337 339 339 340 341 340 340 341 341 341 342 343 342 342 342
347 345 351 355 355 358 349 345 345 344 346 346 347 346 345 345 345 345 344 346 347 347 347 339 335 337 336 334 337 337 336 338 338 337 338 338 341 342 341 341 342 340 340 341 340 339 340 341 341
349 352 348 355 356 351 347 345 345 346 348 347 347 346 345 345 345 344 345 347 346 346 345 337 337 338 338 337 336 337 338 337 337 337 339 339 341 338 339 340 339 338 335 335 339 339 340 342 341
351 351 352 354 353 348 346 345 345 347 347 347 346 346 346 345 344 344 345 347 348 345 344 344 337 336 338 337 337 336 336 336 338 338 338 339 340 338 339 340 339 335 334 330 328 330 337 335 336
352 352 354 357 355 349 347 345 346 348 348 347 345 345 346 345 345 344 345 347 347 347 345 345 336 339 338 338 335 336 338 332 334 338 338 333 331 336 338 339 334 337 336 336 332 328 327 327 329
353 355 355 353 355 354 350 347 348 347 345 345 345 347 345 344 344 343 343 346 348 348 346 346 346 335 335 331 334 338 336 338 337 337 328 325 328 334 337 339 337 339 338 337 337 334 328 325 325
354 353 353 352 355 356 349 348 348 346 347 343 345 347 345 344 343 343 342 345 346 347 347 347 350 344 344 345 338 335 333 335 336 327 330 325 330 335 338 337 339 340 339 338 338 336 328 324 324
350 357 357 351 352 354 350 350 348 347 346 344 345 344 343 343 343 343 343 344 344 346 349 346 347 349 346 341 339 335 337 335 329 342 344 345 346 347 346 341 340 339 338 339 338 332 328 325 325
351 357 353 347 347 350 349 348 346 346 344 345 345 343 344 344 343 343 344 343 343 342 345 347 347 345 347 345 347 346 349 345 344 345 346 345 347 346 344 338 338 339 343 341 337 343 345 349 345
349 353 350 348 345 347 348 347 346 345 346 344 343 345 345 344 343 343 344 343 344 343 341 341 348 344 348 346 347 346 342 343 346 350 347 347 346 347 343 344 345 341 349 349 348 349 348 345 343
350 349 349 347 345 343 348 347 344 343 345 343 344 345 344 343 343 342 343 344 344 341 341 342 345 348 348 338 347 345 341 342 347 348 347 347 344 346 348 344 340 345 345 348 346 347 348 345 342
349 349 348 346 344 346 346 349 346 345 342 344 344 344 343 342 342 341 342 344 343 342 342 343 345 344 348 348 345 346 341 345 342 345 347 342 345 347 344 348 344 347 346 346 346 346 345 342 342
347 349 348 348 348 345 347 347 348 344 341 343 343 342 342 342 342 341 342 343 344 342 342 344 344 349 347 348 347 344 343 344 346 343 344 344 345 349 347 346 348 348 346 347 346 346 346 344 344
347 348 349 349 348 346 343 345 347 345 341 341 341 342 344 344 343 343 342 342 343 342 343 344 345 345 347 346 345 346 342 345 345 344 348 349 349 346 348 349 348 347 344 346 347 346 346 345 345
345 347 354 352 349 347 344 347 344 346 343 341 342 343 345 346 344 344 342 343 343 343 343 344 344 344 346 344 346 346 345 345 346 345 345 349 341 348 350 348 349 347 349 346 346 345 345 345 345
342 351 354 355 349 346 345 348 343 346 347 343 343 344 343 344 345 345 345 344 343 345 345 344 344 344 345 346 348 347 346 346 345 346 347 349 347 345 348 349 347 354 349 346 345 344 346 347 345
346 347 350 356 350 346 346 345 344 343 346 346 343 342 343 344 346 344 345 346 344 345 346 345 344 346 346 347 347 348 344 346 346 347 347 349 349 349 349 348 351 354 347 347 346 348 349 348 348
342 345 349 350 348 348 345 346 345 344 344 344 345 345 343 344 345 344 344 347 345 346 346 346 345 347 347 347 348 346 344 346 346 348 349 348 350 349 348 349 349 351 354 351 348 347 349 348 349
336 342 345 344 347 347 349 349 345 342 343 344 345 345 344 344 345 345 345 345 346 345 347 346 348 348 348 347 346 345 345 345 347 349 349 350 349 349 346 349 349 343 346 354 354 355 351 347 347
333 337 342 344 343 343 345 351 348 344 342 339 342 344 345 345 345 345 345 345 345 346 346 347 350 349 348 346 347 347 347 347 347 349 349 349 349 348 352 346 350 346 352 353 357 355 352 351 348
333 333 334 338 342 350 342 349 351 349 347 344 342 343 346 348 345 346 345 345 346 346 346 349 350 350 346 347 346 348 348 347 345 347 347 350 349 350 350 352 351 348 354 349 352 350 354 351 352
334 336 336 339 339 343 344 342 348 350 350 347 344 343 345 344 344 344 344 346 345 347 347 347 349 350 349 348 348 348 346 346 346 347 349 350 349 351 350 351 352 345 353 349 353 356 352 353 354
330 334 337 338 340 343 341 340 351 355 351 347 345 345 344 344 343 344 343 346 345 346 347 347 350 350 350 349 348 350 346 347 345 348 350 348 350 349 350 351 352 351 351 350 354 355 352 353 352
328 334 339 341 341 341 342 338 343 344 345 347 346 346 345 346 344 345 344 347 346 347 348 347 350 349 351 349 348 349 350 351 348 349 347 346 347 346 348 349 352 350 343 353 353 351 355 353 355
330 333 337 345 342 344 341 342 343 339 342 344 343 344 345 343 344 344 343 345 346 347 347 347 351 351 349 350 349 349 349 347 348 349 347 346 346 346 348 352 350 350 351 351 351 350 350 352 351
333 332 332 334 338 343 342 340 340 339 343 345 344 344 344 344 344 342 342 340 345 346 348 348 351 352 352 350 350 349 349 348 348 346 343 348 348 348 348 348 349 350 351 352 353 350 350 350 353
332 336 334 333 342 344 343 340 344 341 344 343 340 341 345 346 345 341 343 344 346 347 347 348 350 352 352 351 350 350 350 348 347 351 351 348 348 346 350 351 348 349 351 352 352 349 349 349 349
332 331 336 336 341 348 349 345 340 341 344 343 340 340 341 347 344 343 342 344 346 347 348 348 350 352 352 351 351 351 351 350 349 349 348 347 350 353 350 351 352 352 352 352 349 349 348 355 352
333 334 336 335 343 338 343 344 345 345 345 343 340 341 345 347 344 342 343 344 344 347 348 349 350 351 352 351 351 351 351 351 350 350 351 351 350 352 351 350 351 351 352 353 354 352 351 352 351
Wind_Speed
7 7 2 3 5 5 8 14 16 13 13 16 12 19 17 17 9 12 18 16 17 15 13 14 15 16 15 16 15 17 17 17 18 18 18 18 18 18 17 17 16 16 16 15 14 15 17 18 18
4 3 4 5 5 8 8 12 13 15 16 13 11 13 22 19 23 23 21 16 16 18 17 13 15 15 15 16 16 16 17 17 17 17 18 18 19 19 19 19 19 18 18 20 20 20 18 16 15
2 1 2 3 4 3 11 13 13 18 12 14 9 16 12 21 16 21 20 16 19 18 15 16 16 16 16 16 16 16 16 17 17 17 17 18 20 21 22 22 22 21 21 20 21 22 18 18 13
5 3 3 4 10 8 14 14 16 16 13 14 15 13 24 16 21 22 20 17 16 17 14 17 16 17 16 16 16 15 15 16 16 16 17 17 18 19 21 22 21 21 21 19 18 17 16 14 13
4 1 2 1 8 13 9 15 17 7 10 10 14 20 18 17 22 21 19 18 17 15 14 15 15 16 16 16 16 15 15 14 14 15 16 15 17 18 19 21 20 21 21 20 18 16 15 14 15
5 8 5 2 9 7 8 10 10 10 12 12 22 21 20 20 21 20 18 18 17 17 14 14 15 16 14 15 15 15 14 15 15 15 14 14 17 18 18 20 21 20 20 19 18 16 15 13 13
6 3 2 5 11 8 5 9 5 8 8 15 17 18 20 20 20 19 18 17 22 17 14 14 13 14 14 14 14 12 14 15 14 14 14 14 16 17 17 19 20 19 18 18 17 15 15 13 13
10 3 8 3 9 9 3 4 6 3 12 14 16 10 21 23 20 19 17 17 15 12 14 15 12 15 14 13 14 14 14 15 15 20 21 18 18 17 17 17 18 17 17 17 15 13 13 14 14
4 3 4 6 2 8 2 9 6 5 11 7 10 20 24 24 21 19 17 15 13 14 15 9 15 18 10 11 14 15 17 17 19 20 18 13 13 11 14 14 16 16 15 14 14 15 15 15 17
7 2 4 13 9 3 1 4 10 10 10 7 10 24 24 23 21 19 17 15 13 12 11 11 17 13 13 12 14 11 13 11 11 13 14 11 16 16 13 15 15 14 16 15 16 17 15 11 8
6 4 7 15 14 2 2 8 9 9 10 12 21 24 24 22 20 17 15 14 14 12 11 11 11 17 13 13 13 11 10 12 12 13 11 11 11 10 10 9 8 10 9 7 7 8 9 6 7
6 7 8 11 16 13 3 5 3 4 9 15 18 23 25 22 19 18 15 14 12 12 11 10 11 13 9 11 14 12 10 11 14 11 11 12 15 9 8 11 14 10 10 8 6 7 8 9 10
12 5 12 14 18 8 7 9 5 7 5 11 20 24 23 20 18 15 14 14 12 13 12 11 10 13 12 7 10 11 11 11 10 7 5 22 10 10 11 9 9 11 14 10 8 9 10 11 11
2 3 15 10 12 6 4 5 9 6 14 21 22 22 20 18 16 15 14 13 12 13 12 13 12 7 12 8 9 11 9 11 9 8 5 11 6 10 9 20 12 8 13 10 8 10 10 11 11
10 9 11 12 12 7 10 4 3 7 15 19 19 19 16 13 14 14 13 13 13 14 13 12 13 12 11 10 12 11 10 7 7 6 6 6 5 5 0 13 15 8 7 8 9 10 10 10 8
11 11 9 8 5 6 2 6 11 11 11 18 16 16 15 16 14 13 14 14 14 15 14 13 12 13 12 12 11 11 11 10 9 6 5 4 7 8 7 8 10 9 6 7 7 7 8 8 8
10 4 5 9 5 7 5 3 12 14 10 15 19 20 18 15 13 14 15 14 14 14 15 14 14 14 13 13 11 10 12 11 9 7 7 6 6 9 7 10 9 10 8 7 7 7 7 6 7
5 1 8 11 7 8 12 5 5 14 15 8 16 18 19 19 18 16 17 15 15 14 15 15 14 14 14 11 14 9 12 9 9 7 7 8 5 6 6 5 11 13 13 9 8 7 5 4 5
9 8 11 11 11 13 7 5 12 10 16 15 9 18 22 22 19 17 17 17 16 16 16 16 15 16 15 12 11 11 11 10 8 8 8 8 6 7 11 4 4 4 15 10 9 6 4 3 3
12 4 11 9 13 11 10 7 12 11 12 15 22 14 19 22 19 20 19 17 17 18 16 16 14 17 16 13 13 11 13 9 9 8 8 7 7 7 5 6 3 8 12 10 5 2 2 2 3
11 3 6 12 7 4 9 10 15 14 17 26 29 21 18 16 26 22 20 19 18 18 17 18 15 14 16 15 13 13 14 9 8 9 7 7 7 6 4 6 4 4 14 12 5 2 2 2 2
14 3 2 1 12 5 18 1 16 18 18 22 32 23 24 36 25 27 21 19 20 18 18 17 17 16 16 18 16 13 11 11 10 9 9 8 8 7 4 3 1 3 11 12 2 3 5 3 3
1 4 7 2 12 11 7 10 13 18 14 18 33 33 30 28 24 27 22 23 18 20 19 18 19 17 15 17 13 14 15 10 9 10 12 9 9 7 6 5 5 4 1 6 3 2 2 3 5
10 5 7 8 11 12 3 5 9 14 18 20 23 30 28 24 25 26 20 24 20 19 20 19 20 18 17 15 15 15 14 12 11 11 7 9 8 7 8 7 6 5 2 1 1 2 2 2 2
13 16 10 10 9 4 4 7 3 11 17 23 28 34 29 28 29 23 26 25 23 21 19 21 20 20 20 17 16 15 11 8 9 11 11 9 9 8 11 9 8 4 6 5 4 4 4 3 3
12 19 10 1 6 6 7 2 3 3 10 25 23 30 32 28 26 22 27 26 25 24 20 20 21 20 20 20 16 15 15 13 11 12 11 10 9 8 9 6 8 8 6 5 6 5 4 7 6
5 14 19 6 12 4 9 4 8 5 10 27 25 27 26 33 30 22 27 19 24 23 21 21 20 20 20 19 19 18 17 17 14 13 13 10 11 6 9 9 10 10 9 8 7 6 7 9 8
13 14 9 7 5 7 3 5 10 6 6 11 12 12 19 26 32 31 29 27 23 22 21 20 20 21 20 20 20 18 17 16 19 13 14 16 11 17 4 8 9 11 11 11 11 9 10 11 9
5 13 19 1 6 2 5 7 9 7 5 10 5 7 13 23 38 36 23 27 25 25 24 21 21 20 20 20 19 19 18 17 17 14 16 16 14 12 13 14 11 12 13 13 15 14 16 6 8
11 14 27 12 18 4 8 7 9 4 6 10 8 6 4 7 37 29 30 28 26 23 25 22 22 21 20 20 20 19 18 17 16 16 16 15 16 15 15 16 15 13 12 12 13 12 11 12 11
Wind_Direction
42 25 271 242 242 216 105 100 101 114 89 80 45 60 68 52 56 93 124 114 120 117 107 121 118 116 111 107 107 101 98 96 93 93 94 95 99 104 104 104 103 103 101 99 98 109 108 108 113
40 279 285 261 249 130 106 117 111 96 96 90 101 73 71 75 97 113 117 119 121 122 117 117 118 121 114 113 105 101 98 94 95 94 93 93 100 103 105 103 101 98 95 92 90 97 107 107 104
105 52 249 310 89 325 114 123 104 104 124 91 75 47 62 104 109 118 122 120 115 99 107 116 114 114 112 111 107 104 100 97 97 94 94 95 101 97 94 98 100 97 95 93 92 94 98 99 109
214 21 332 30 293 85 116 111 119 128 74 84 113 81 99 93 113 122 122 120 112 120 116 112 113 115 113 113 112 107 101 96 94 95 93 95 100 96 95 95 92 96 90 88 97 100 94 102 110
179 319 337 241 82 77 90 118 119 125 105 95 93 112 101 107 123 122 124 120 113 110 109 114 113 115 116 112 111 107 102 98 92 95 95 96 96 98 95 99 100 95 87 85 87 97 105 107 109
279 230 172 177 93 112 98 109 125 92 95 101 107 118 110 124 125 126 126 127 116 118 112 112 110 115 115 112 110 103 96 97 96 92 95 93 100 104 96 98 97 89 86 89 88 91 96 104 107
205 230 112 167 134 108 61 127 111 114 120 118 130 119 132 135 132 130 127 119 112 114 116 112 112 120 119 113 110 99 100 98 96 91 90 98 103 110 105 102 99 94 91 85 84 88 94 104 108
288 293 148 156 174 125 127 87 71 78 107 125 134 137 150 142 140 135 132 125 121 110 123 122 127 118 109 110 110 105 102 98 92 86 83 87 95 100 97 100 98 95 89 81 80 87 95 99 103
156 3 221 157 206 134 141 122 93 60 129 183 134 139 146 146 144 139 138 128 127 128 132 113 115 121 137 120 104 101 90 86 93 83 83 95 91 94 105 114 99 91 82 74 76 88 86 87 93
186 60 181 154 139 125 220 112 117 147 134 139 167 136 147 149 150 148 148 141 142 135 135 127 132 134 142 119 112 109 88 99 103 95 96 117 108 119 116 101 87 82 75 70 83 80 76 88 65
30 58 95 115 145 243 65 138 151 147 153 151 132 150 154 155 155 154 154 148 143 148 146 147 109 138 143 157 123 115 110 107 106 103 109 105 103 95 106 82 114 83 54 82 37 56 65 102 114
129 45 79 130 155 203 90 320 134 103 52 151 152 159 158 160 161 161 157 151 149 155 151 153 150 160 123 125 108 130 125 126 116 111 115 119 111 111 104 118 110 81 98 102 102 117 107 103 104
116 120 99 144 151 170 143 17 12 60 124 156 146 159 161 166 165 162 160 155 159 156 159 154 158 168 132 135 139 134 138 140 114 111 132 104 112 132 132 115 91 143 120 100 99 98 104 103 104
99 113 132 138 123 140 128 29 330 122 128 134 151 160 166 168 167 166 166 162 164 159 160 161 160 163 147 147 144 141 141 137 119 124 115 76 141 127 191 146 114 53 86 94 104 104 104 105 99
159 129 91 101 148 116 113 6 296 301 146 150 163 166 160 158 168 170 171 171 170 164 162 165 163 167 157 155 153 143 145 147 145 116 131 121 105 126 50 69 91 93 103 99 106 107 108 108 113
223 194 162 126 159 102 274 179 260 287 183 166 178 165 165 165 169 170 169 170 169 167 164 168 169 170 165 159 145 152 166 158 136 133 129 124 148 131 55 61 107 120 112 124 122 124 117 116 118
201 167 337 114 133 125 55 150 245 286 280 197 182 176 180 167 167 169 167 163 167 165 169 169 171 171 165 166 163 153 159 162 153 151 157 147 129 135 114 126 131 103 129 133 130 133 128 128 135
43 85 113 126 138 133 149 172 263 265 276 238 180 187 177 179 180 172 172 162 165 166 171 175 173 171 168 170 156 161 162 160 178 161 146 135 141 138 126 175 173 161 144 131 144 140 151 142 177
98 131 156 121 146 154 191 220 197 211 258 269 284 258 194 178 181 169 173 170 171 168 172 176 177 171 172 179 173 164 170 169 178 175 145 160 156 146 130 221 131 155 106 123 135 118 109 169 201
246 112 78 110 170 241 171 180 149 157 257 262 260 241 222 184 186 170 171 181 177 184 179 184 185 178 179 183 179 182 176 175 172 176 163 165 162 154 151 177 308 105 106 124 136 219 174 198 227
261 260 176 124 183 230 175 147 166 182 205 243 255 254 281 235 180 171 181 182 187 180 187 186 192 184 178 183 195 186 181 176 171 170 179 182 169 166 167 185 315 120 130 133 120 100 220 222 292
259 55 294 132 246 143 258 350 175 173 194 217 237 254 254 214 218 181 179 189 185 186 189 190 191 194 195 187 191 193 182 190 186 179 177 179 183 179 176 198 255 203 8 95 69 167 76 250 264
262 221 277 259 291 307 136 273 141 161 194 205 223 219 235 229 235 186 181 183 190 184 189 192 195 193 191 195 182 200 187 196 189 194 194 179 205 192 189 193 197 190 289 213 185 75 165 336 7
272 252 259 252 249 250 95 267 133 175 194 188 223 224 221 217 213 199 190 182 184 188 185 192 194 190 193 198 191 191 206 190 194 191 181 189 203 211 204 210 202 211 225 266 195 237 321 310 310
227 234 223 221 212 240 155 282 197 182 166 179 190 208 220 207 228 195 191 188 176 188 185 191 192 197 195 197 196 199 206 225 195 183 187 192 190 203 227 206 218 229 242 219 219 264 237 292 284
217 249 262 57 332 354 227 210 22 87 160 176 183 190 203 216 215 212 183 199 182 190 187 193 189 200 200 201 198 203 209 204 202 209 200 203 207 203 223 224 217 232 235 251 252 254 276 265 276
218 226 266 318 190 298 176 235 146 81 94 146 184 189 195 213 217 211 200 200 184 184 189 196 193 195 197 201 205 201 206 202 208 214 220 214 231 216 226 215 224 227 235 241 247 264 248 262 276
255 322 242 212 222 270 268 179 124 166 179 151 140 222 200 194 215 214 197 182 178 193 192 197 196 197 197 199 204 206 207 203 197 221 193 216 216 227 247 209 227 236 244 252 254 251 259 270 251
207 237 238 276 93 210 337 3 94 124 123 135 124 275 262 205 199 211 199 185 181 196 187 194 197 198 196 200 202 202 209 214 219 225 228 224 220 223 232 231 229 235 244 251 249 232 233 243 260
127 274 272 262 192 150 123 271 267 67 162 140 92 4 266 207 196 203 198 190 188 205 181 192 196 200 200 200 203 206 207 211 218 221 223 225 224 233 240 241 233 241 250 250 250 254 248 254 253